Regional Weather Roundup
Issued by NWS Portland, ME

Home | Current Version | Previous Version | Text Only | Print | Product List | Glossary On
Versions: 1 2 3 4 5 6 7 8 9 10 11 12 13 14 15 16 17 18 19 20 21 22 23 24 25 26 27 28 29 30 31 32 33 34 35 36 37 38 39 40 41 42 43 44 45 46 47 48 49 50
000
ASUS41 KGYX 090810
RWRGYX
WEATHER ROUNDUP FOR MAINE AND NEW HAMPSHIRE
NATIONAL WEATHER SERVICE GRAY ME
300 AM EST FRI DEC 09 2016

MEZ002-005-006-010-012-015-018-020-021-024-026-027-029-090900-
MAINE

CITY           SKY/WX    TMP DP  RH WIND       PRES   REMARKS
PORTLAND       CLEAR     29  19  66 SW8       29.75S
SANFORD        CLEAR     27  21  78 SW5       29.77R
BAR HARBOR     CLEAR     31  23  72 W7        29.67S
WISCASSET      CLEAR     30  22  72 VRB6      29.73S
ROCKLAND       CLEAR     28  24  85 W9        29.70S
FRYEBURG       PTCLDY    30  17  58 W5        29.72R
LEWISTONAUBURN PTCLDY    27  21  78 SW8       29.71R
AUGUSTA        CLEAR     29  19  66 SW8       29.69R
WATERVILLE     PTCLDY    28  20  71 SW5       29.65R
BANGOR         CLEAR     28  21  75 W6        29.65S
GREENVILLE       N/A     21  20  96 VRB5      29.55R
MILLINOCKET    PTCLDY    25  18  74 W6        29.62R
HOULTON        CLOUDY    23  18  81 W6        29.56R
PRESQUE ISLE   FLURRIES  22  19  89 W10       29.54S WCI  11
FRENCHVILLE    CLOUDY    24  20  84 NW7       29.49R
CARIBOU        LGT SNOW  24  19  81 VRB7      29.51R
$$

NHZ002-005-008-009-011-012-014-090900-
NEW HAMPSHIRE

CITY           SKY/WX    TMP DP  RH WIND       PRES   REMARKS
PORTSMOUTH     CLEAR     30  17  58 W9        29.78R
ROCHESTER      CLEAR     29  18  63 CALM      29.76S
NASHUA         PTCLDY    31  18  58 W8G16     29.82F
MANCHESTER     CLEAR     32  15  49 VRB7G17   29.80S
CONCORD        CLEAR     31  17  56 SW8       29.78S
LACONIA        PTCLDY    29  20  69 SW9       29.75S
PLYMOUTH       LGT SNOW  28  25  87 W6        29.75S
BERLIN         LGT SNOW  26  18  71 NW8G21    29.69R
WHITEFIELD     LGT SNOW  26  20  77 W15G23    29.73R WCI  14
JAFFREY        CLEAR     28  14  55 VRB7G20   29.80R
KEENE          CLEAR     29  18  63 SW7       29.84S
LEBANON        MOCLDY    30  20  66 SW10      29.78R
MT WASHINGTON  SNOW       5   5 100 W83G92      N/A  VSB 0   WCI -29
$$

VTZ005-007-008-090900-
VERMONT

CITY           SKY/WX    TMP DP  RH WIND       PRES   REMARKS
ST JOHNSBURY     N/A     27  19  72 MISG      29.76R
MONTPELIER     LGT SNOW  24  21  88 NW12G20   29.81R FOG     WCI  13
BURLINGTON     CLOUDY    29  18  63 W16G23    29.85R WCI  17
$$

MAZ007-012-024-CTZ003-RIZ002-NYZ038-NYZ072-090900-
SOUTHERN NEW ENGLAND AND NY

CITY           SKY/WX    TMP DP  RH WIND       PRES   REMARKS
BOSTON         CLEAR     33  17  51 W18       29.85S
WORCESTER      CLEAR     27  14  58 W17       29.81S WCI  14
NANTUCKET      CLEAR     35  18  49 W20G30    29.88R
PROVIDENCE     PTCLDY    31  18  58 W10       29.90R
HARTFORD       PTCLDY    26  17  68 CALM      29.92R
ALBANY         MOCLDY    30  20  66 SW5       29.94R
NEW YORK CITY  CLEAR     35  16  45 W20G28    30.03R
$$

ANZ081-ANZ082-ANZ150-NHZ014-MEZ023>029-090900-
COASTAL MARINE OBSERVATIONS

STATION/POSITION TIME  TEMP    WIND        PRES    WAVE
                       AIR SEA DIR/SP/G            HT/PER
                 (UTC) (F)     (DEG/KT/KT) (MB)    (FT/S)
MOUNT DESERT ROC 0800   37                 1005.0R
MATINICUS ROCK   0800   37     280/ 24/ 27 1005.0R
ISLE OF SHOALS   0800   34     250/ 21/ 24 1008.5R
JEFFREYS LEDGE   0708      51                N/A     5/ 5
CASHES LEDGE BUO 0650   39 50  260/ 23/ 29 1006.4    6/ 6
GEORGES BANK BUO 0750   45 50              1006.5R  11/ 8
$$

.............KEY..............
   WCI - WIND CHILL
   TC  - TEMPERATURE IN CELSIUS
   VSB - VISIBILITY IN MILES
   HX  - HEAT INDEX
   FAIR- INDICATES FEW OR NO CLOUDS BELOW 12,000 FT, WITH NO
         SIGNIFICANT WEATHER AND/OR OBSTRUCTIONS TO VISIBILITY.






USA.gov is the U.S. government's official web portal to all federal, state and local government web resources and services.